DW8847 Weather Reports


Display with metric or nautical units.
time (UTC)temp
F
wind
direction
speed
MPH
gust
MPH
rain 1hr
in
rain 24hr
in
rain mn
in
humidity
%
barometer
mb
20260906193011 71 111 0.0 2.0 0.00 0.00 0.00 79 1021.1
20260906191511 72 111 0.0 2.0 0.00 0.00 0.00 77 1021.0
20260906190010 73 215 0.0 2.0 0.00 0.00 0.00 76 1021.0
20260906184510 74 215 0.0 0.0 0.00 0.00 0.00 73 1020.7
20260906183011 75 215 0.0 0.0 0.00 0.00 0.00 74 1020.7
20260906181525 77 215 0.0 0.0 0.00 0.00 0.00 70 1020.4
20260906180021 79 215 0.0 0.0 0.00 0.00 0.00 62 1020.3
20260906174514 81 215 0.0 0.0 0.00 0.00 0.00 59 1020.3
20260906173008 83 215 0.0 0.0 0.00 0.00 0.00 57 1020.3
20260906171508 85 215 0.0 0.0 0.00 0.00 0.00 50 1020.1
20260906170009 88 215 0.0 0.0 0.00 0.00 0.00 48 1020.0
20260906164508 90 215 0.0 0.0 0.00 0.00 0.00 46 1020.0
20260906163003 90 215 0.0 1.0 0.00 0.00 0.00 42 1020.0
20260906161503 90 215 0.0 0.0 0.00 0.00 0.00 40 1019.9
20260906160000 88 215 0.0 3.0 0.00 0.00 0.00 46 1020.0
20260906154502 89 57 0.0 2.0 0.00 0.00 0.00 40 1020.0
20260906153119 90 55 0.0 1.0 0.00 0.00 0.00 39 1020.0
20260906151601 89 55 0.0 2.0 0.00 0.00 0.00 40 1020.1
20260906150108 90 57 0.0 2.0 0.00 0.00 0.00 39 1020.1
20260906144559 89 202 0.0 2.0 0.00 0.00 0.00 42 1020.1
20260906143059 89 79 0.0 2.0 0.00 0.00 0.00 38 1020.2
20260906141620 89 62 1.0 2.0 0.00 0.00 0.00 40 1020.3
20260906140058 89 76 0.0 2.0 0.00 0.00 0.00 39 1020.3
20260906134557 88 150 0.0 3.0 0.00 0.00 0.00 42 1020.3
20260906133106 89 74 1.0 4.0 0.00 0.00 0.00 41 1020.5
20260906131606 89 92 0.0 2.0 0.00 0.00 0.00 39 1020.6
20260906130059 89 71 0.0 3.0 0.00 0.00 0.00 40 1020.7
20260906124554 88 46 0.0 3.0 0.00 0.00 0.00 43 1020.8
20260906123059 88 99 1.0 3.0 0.00 0.00 0.00 42 1020.8
20260906121552 88 29 3.0 6.0 0.00 0.00 0.00 42 1020.9
20260906120053 89 167 1.0 4.0 0.00 0.00 0.00 42 1020.9
20260906114552 87 101 1.0 4.0 0.00 0.00 0.00 42 1020.9
20260906113050 88 100 1.0 4.0 0.00 0.00 0.00 43 1021.0
20260906111551 87 9 3.0 7.0 0.00 0.00 0.00 44 1020.9
20260906110047 87 60 1.0 5.0 0.00 0.00 0.00 43 1021.0
20260906104546 86 35 5.0 9.0 0.00 0.00 0.00 43 1021.0
20260906103047 85 13 5.0 11.0 0.00 0.00 0.00 43 1021.0
20260906101540 85 13 4.0 10.0 0.00 0.00 0.00 44 1021.1
20260906100037 84 71 4.0 11.0 0.00 0.00 0.00 46 1021.2
20260906094540 84 23 7.0 12.0 0.00 0.00 0.00 45 1021.3
20260906093033 83 43 6.0 16.0 0.00 0.00 0.00 46 1021.5
20260906091528 83 46 6.0 12.0 0.00 0.00 0.00 47 1021.4
20260906090027 83 19 6.0 11.0 0.00 0.00 0.00 48 1021.4
20260906084522 83 13 6.0 11.0 0.00 0.00 0.00 51 1021.5
20260906083019 82 35 4.0 11.0 0.00 0.00 0.00 52 1021.6
20260906081519 82 22 4.0 9.0 0.00 0.00 0.00 53 1021.6
20260906080016 81 55 3.0 7.0 0.00 0.00 0.00 55 1021.5
20260906074506 80 61 5.0 11.0 0.00 0.00 0.00 57 1021.5
20260906073006 79 35 5.0 11.0 0.00 0.00 0.00 58 1021.3
20260906071559 79 61 3.0 8.0 0.00 0.00 0.00 61 1021.4
20260906070055 78 72 5.0 9.0 0.00 0.00 0.00 63 1021.3
20260906064550 76 17 2.0 5.0 0.00 0.00 0.00 70 1021.1
20260906063047 74 16 2.0 4.0 0.00 0.00 0.00 73 1021.1
20260906061547 73 60 0.0 4.0 0.00 0.00 0.00 76 1021.1
20260906060042 72 22 3.0 5.0 0.00 0.00 0.00 77 1020.8
20260906054537 70 24 3.0 5.0 0.00 0.00 0.00 80 1020.7
20260906053030 69 36 1.0 3.0 0.00 0.00 0.00 83 1020.6
20260906051527 68 36 1.0 3.0 0.00 0.00 0.00 84 1020.5
20260906050025 68 36 1.0 3.0 0.00 0.00 0.00 84 1020.3
20260906044521 67 36 1.0 4.0 0.00 0.00 0.00 85 1020.0
20260906043029 67 40 1.0 3.0 0.00 0.00 0.00 85 1020.0
20260906041520 67 40 0.0 2.0 0.00 0.00 0.00 86 1019.9
20260906040018 67 40 0.0 2.0 0.00 0.00 0.00 86 1019.8
20260906034529 67 40 0.0 2.0 0.00 0.00 0.00 86 1019.8
20260906033015 67 40 0.0 2.0 0.00 0.00 0.00 86 1019.7
20260906031520 68 40 0.0 2.0 0.00 0.00 0.00 85 1019.5
20260906030011 68 40 0.0 2.0 0.00 0.00 0.00 85 1019.4
20260906024511 68 40 1.0 2.0 0.00 0.00 0.00 85 1019.2
20260906023012 68 40 0.0 2.0 0.00 0.00 0.00 85 1019.3
20260906021510 68 40 0.0 2.0 0.00 0.00 0.00 85 1019.2
20260906020008 68 40 0.0 2.0 0.00 0.00 0.00 85 1019.2
20260906014507 68 40 0.0 3.0 0.00 0.00 0.00 85 1019.1
20260906013007 68 40 0.0 2.0 0.00 0.00 0.00 85 1019.1
20260906011505 68 40 0.0 2.0 0.00 0.00 0.00 84 1019.0
20260906010004 68 40 0.0 2.0 0.00 0.00 0.00 84 1018.9
20260906004503 68 40 0.0 2.0 0.00 0.00 0.00 84 1018.9
20260906003003 69 40 1.0 3.0 0.00 0.00 0.00 83 1018.9
20260906001502 69 40 0.0 2.0 0.00 0.00 0.00 82 1018.9
20260906000001 69 40 0.0 0.0 0.00 0.00 0.00 83 1018.9
20260905234601 69 40 0.0 2.0 0.00 0.00 0.00 83 1018.8
20260905233059 69 40 0.0 2.0 0.00 0.00 0.00 83 1018.7
20260905231607 69 40 0.0 2.0 0.00 0.00 0.00 85 1018.7
20260905230058 68 40 0.0 2.0 0.00 0.00 0.00 86 1018.8
20260905224555 69 40 0.0 2.0 0.00 0.00 0.00 85 1018.6
20260905223056 69 40 0.0 2.0 0.00 0.00 0.00 84 1018.5
20260905221549 70 40 0.0 2.0 0.00 0.00 0.00 83 1018.3
20260905220046 71 40 0.0 2.0 0.00 0.00 0.00 82 1018.2
20260905214548 73 40 0.0 2.0 0.00 0.00 0.00 80 1018.1
20260905213043 74 40 0.0 2.0 0.00 0.00 0.00 76 1018.0
20260905211546 74 40 0.0 3.0 0.00 0.00 0.00 77 1018.1
20260905210056 73 42 0.0 0.0 0.00 0.00 0.00 86 1017.9
20260905204541 73 42 0.0 1.0 0.00 0.00 0.00 88 1017.9
20260905203041 73 42 1.0 2.0 0.00 0.00 0.00 88 1018.0
20260905201540 73 42 0.0 0.0 0.00 0.00 0.00 87 1017.9
20260905200105 75 42 0.0 2.0 0.00 0.00 0.00 85 1017.6
20260905194535 75 42 0.0 0.0 0.00 0.00 0.00 85 1017.4